Location: �perlecques
(50.8057°N, 2.1521°E)
Time: 23:51:58
(UTC+00:00)

Explorer 7 - All Passes

Search period start: 28 July 2021 00:00
Search period end: 07 August 2021 00:00
Orbit: 484 x 676 km, 50.3° (Epoch: 28 July)

Date Brightness Start Highest point End Pass type
(mag) Time Alt. Az. Time Alt. Az. Time Alt. Az.
28 Jul - 06:39:45 10° SW 06:43:17 33° SSE 06:47:00 10° E daylight
28 Jul - 08:19:26 10° WSW 08:23:26 77° S 08:27:44 10° E daylight
28 Jul - 09:59:45 10° W 10:03:56 77° S 10:08:23 10° ESE daylight
28 Jul - 11:40:14 10° W 11:44:11 36° SSW 11:48:23 10° SE daylight
28 Jul - 13:23:17 10° SW 13:23:52 10° SW 13:24:27 10° SW daylight
29 Jul - 05:06:14 10° SSE 05:07:50 12° SE 05:09:27 10° ESE daylight
29 Jul - 06:43:45 10° SW 06:47:28 44° SSE 06:51:25 10° E daylight
29 Jul - 08:23:43 10° W 08:27:45 84° S 08:32:04 10° E daylight
29 Jul - 10:04:05 10° W 10:08:14 67° SSW 10:12:39 10° ESE daylight
29 Jul - 11:44:42 10° W 11:48:21 27° SW 11:52:11 10° SSE daylight
30 Jul - 05:09:13 10° S 05:11:51 18° SE 05:14:35 10° E daylight
30 Jul - 06:47:52 10° WSW 06:51:42 56° SSE 06:55:46 10° E daylight
30 Jul - 08:28:02 10° W 08:32:05 85° S 08:36:24 10° E daylight
30 Jul - 10:08:24 10° W 10:12:29 55° SSW 10:16:51 10° ESE daylight
30 Jul - 11:49:21 10° W 11:52:28 19° SW 11:55:43 10° S daylight
31 Jul - 05:12:46 10° SSW 05:15:57 25° SE 05:19:16 10° E daylight
31 Jul - 06:52:05 10° WSW 06:55:57 69° SSE 07:00:06 10° E daylight
31 Jul - 08:32:21 10° W 08:36:24 82° S 08:40:43 10° E daylight
31 Jul - 10:12:45 10° W 10:16:44 43° SSW 10:20:57 10° SE daylight
31 Jul - 11:54:22 10° WSW 11:56:32 13° SW 11:58:44 10° SSW daylight
01 Aug - 05:16:36 10° SW 05:20:05 34° SSE 05:23:44 10° E daylight
01 Aug - 06:56:21 10° WSW 07:00:16 79° S 07:04:25 10° E daylight
01 Aug - 08:36:41 10° W 08:40:43 75° S 08:45:01 10° ESE daylight
01 Aug - 10:17:10 10° W 10:20:55 32° SSW 10:24:53 10° SSE daylight
02 Aug - 03:42:48 10° SSE 03:44:36 13° SE 03:46:24 10° ESE visible
02 Aug - 05:20:37 10° SW 05:24:16 46° SSE 05:28:07 10° E daylight
02 Aug - 07:00:39 10° W 07:04:34 84° S 07:08:44 10° E daylight
02 Aug - 08:41:00 10° W 08:45:01 64° SSW 08:49:16 10° ESE daylight
02 Aug - 10:21:40 10° W 10:25:04 24° SW 10:28:37 10° SSE daylight
03 Aug - 03:45:55 10° S 03:48:38 19° SE 03:51:25 10° E daylight
03 Aug - 05:24:45 10° WSW 05:28:31 59° SSE 05:32:28 10° E daylight
03 Aug - 07:04:58 10° W 07:08:53 85° S 07:13:03 10° E daylight
03 Aug - 08:45:19 10° W 08:49:16 51° SSW 08:53:26 10° SE daylight
03 Aug - 10:26:24 10° W 10:29:11 17° SW 10:32:02 10° S daylight
04 Aug - 03:49:32 10° SSW 03:52:44 26° SSE 03:56:02 10° E daylight
04 Aug - 05:28:58 10° WSW 05:32:47 71° SSE 05:36:47 10° E daylight
04 Aug - 07:09:17 10° W 07:13:12 81° S 07:17:23 10° E daylight
04 Aug - 08:49:41 10° W 08:53:29 39° SSW 08:57:30 10° SE daylight
04 Aug - 10:31:45 10° WSW 10:33:13 12° SW 10:34:43 10° SSW daylight
05 Aug - 03:53:25 10° SW 03:56:53 36° SSE 04:00:29 10° E daylight
05 Aug - 05:33:15 10° WSW 05:37:05 80° S 05:41:07 10° E daylight
05 Aug - 07:13:35 10° W 07:17:30 72° SSW 07:21:40 10° ESE daylight
05 Aug - 08:54:07 10° W 08:57:40 29° SSW 09:01:23 10° SSE daylight
06 Aug - 02:19:21 10° S 02:21:21 14° SE 02:23:22 10° ESE visible
06 Aug - 03:57:27 10° SW 04:01:05 48° SSE 04:04:51 10° E daylight
06 Aug - 05:37:33 10° W 05:41:23 85° S 05:45:26 10° E daylight
06 Aug - 07:17:54 10° W 07:21:47 60° SSW 07:25:53 10° ESE daylight
06 Aug - 08:58:40 10° W 09:01:48 21° SW 09:05:03 10° SSE daylight
